Location: Arborea
(39.7744°N, 8.5819°E)
Time: 19:29:28
(UTC+00:00)

CZ-2C DEB - Pass Details

Date: 17 August 2022
Orbit: 681 x 927 km, 97.9° (Epoch: 03 October)

Event Time Altitude Azimuth Distance (km) Brightness Sun altitude
Rises 21:49:34 0° 5° (N) 3,227 ? -32.1°
Reaches altitude 10° 21:51:52 10° 360° (N) 2,333 ? -32.4°
Enters shadow 21:56:17 45° 305° (NW) 1,093 ? -32.7°
